STARLINK-34084, 63970

Orbit data source: Space-Track

STARLINK-34084, 63970 is a payload satellite owned by SpaceX/Seattle (US) in LEO that was launched on Tue, 13 May 2025 UTC via an FALCON 9 launch vehicle from the Air Force Eastern Test Range (AFETR). Payload-class satellites include a variety of spacecraft equipped with specific instruments for various scientific and technological missions. These include communications satellites like Starlink; space stations such as the ISS; scientific satellites like the Hubble; Earth observation satellites from companies like Planet Labs, Umbra, and HawkEye 360; GPS; miniature CubeSats for education and research; and military/defense satellites.

Loading next visibility...
Identifier
63970, 2025-099U
Orbit
LEO
Country
Flag of USUS
Related business
Manufacturer
SpaceX/Seattle
Mission
Operational Commercial Communications
Bus & Motor
STARLINK V2MO, Unknown motor
Mass
575 kg wet, ~530 kg dry
Launch date (UTC)
2025-05-13 (11 months ago)
Launch vehicle
FALCON 9
Launch site
Air Force Eastern Test Range (AFETR)
Object type
Payload
Rocket body
Debris
Shape & HBR
Box + 2 Pan, 17.7 m
Radar Cross Section
36.964 m², Large (>1 m²)

Expand to show TLE details & history
Last TLE update: 16 hours ago

TLE from 16 hours ago
0 STARLINK-34084
1 63970U 25099U   26093.81390889  .00060744  00000-0  21974-2 0  9992
2 63970  43.0032  33.9060 0001189 347.9806  12.1017 15.27600463 51187
Epoch: 2026-04-03T19:32Z
TLE epoch observation values (Epoch: 2026-04-03T19:32:01.728Z)
Latitude
-0.00001°
Longitude
-91.24386°
Altitude
481.966 km
Speed
7.627 km/s
True Right ascension
02h 15m 37s
True Declination
0° 00' 00"
Sunlit
Object was in daylight at epoch
Visualization orbit readout
Latitude
Unknown
Longitude
Unknown
Altitude
Unknown
Speed
Unknown
Apparent Right ascension
Unknown
Apparent Declination
Unknown
Sunlit
N/A
Visualization observer readout
Local Sidereal Time
17:27:48
Azimuth
Unknown
Elevation
Unknown
Doppler factor
Unknown
Orbital elements
Apogee altitude
485.748 km
Perigee altitude
484.116 km
Semi-major axis
6,863.069 km
Eccentricity
0.00012
Inclination
43.0032°
RAAN
33.906°
Arg. of periapsis
347.9806°
True anomaly
12.10456°
Mean anomaly
12.1017°
Eccentric anomaly
12.10313°
Mean motion
3.81738 °/min
Orbital period
94.31 mins
BSTAR
0.0021974
Loading maneuver chart data...
Computing Atmospheric mass density...
Loading historical data...
Loading historical data...
Loading historical data...
Loading historical data...
Loading historical data...
Loading historical data...
Loading historical data...

Documentation

Showing up to 5 results
|